GW3504 Weather Reports


time (UTC)temp
C
wind
direction
speed
KPH
gust
KPH
rain 1hr
cm
rain 24hr
cm
rain mn
cm
humidity
%
barometer
mb
20260509051536 12 0 0.0 0.0 0.00 0.05 0.00 89 1009.8
20260509051025 12 0 0.0 0.0 0.00 0.05 0.00 89 1009.8
20260509050523 11 0 0.0 0.0 0.00 0.05 0.00 89 1009.8
20260509050037 11 0 0.0 0.0 0.00 0.05 0.00 89 1009.8
20260509045524 11 0 0.0 0.0 0.00 0.05 0.05 89 1009.7
20260509045024 11 0 0.0 0.0 0.00 0.05 0.05 89 1009.6
20260509044539 12 0 0.0 0.0 0.00 0.05 0.05 89 1009.6
20260509044024 12 0 0.0 0.0 0.00 0.05 0.05 89 1009.5
20260509043522 12 0 0.0 0.0 0.00 0.05 0.05 89 1009.6
20260509043048 12 0 0.0 0.0 0.00 0.05 0.05 89 1009.6
20260509042524 12 0 0.0 0.0 0.00 0.05 0.05 89 1009.6
20260509042025 12 0 0.0 0.0 0.00 0.05 0.05 89 1009.5
20260509041550 12 0 0.0 0.0 0.00 0.05 0.05 89 1009.5
20260509041023 12 0 0.0 0.0 0.00 0.05 0.05 89 1009.6
20260509040524 12 0 0.0 0.0 0.00 0.05 0.05 89 1009.6
20260509040035 12 0 0.0 0.0 0.00 0.05 0.05 89 1009.6
20260509035524 12 0 0.0 0.0 0.00 0.05 0.05 89 1009.6
20260509035026 12 0 0.0 0.0 0.00 0.05 0.05 89 1009.8
20260509034559 12 0 0.0 0.0 0.00 0.05 0.05 89 1009.7
20260509034024 12 0 0.0 0.0 0.00 0.05 0.05 89 1009.6
20260509033525 12 0 0.0 0.0 0.00 0.05 0.05 88 1009.6
20260509033037 12 0 0.0 0.0 0.00 0.05 0.05 89 1009.6
20260509032524 12 0 0.0 0.0 0.00 0.05 0.05 89 1009.6
20260509032023 12 0 0.0 0.0 0.00 0.05 0.05 89 1009.5
20260509031539 12 0 0.0 0.0 0.00 0.05 0.05 88 1009.5
20260509031024 12 0 0.0 0.0 0.00 0.05 0.05 88 1009.6
20260509030526 12 0 0.0 0.0 0.00 0.05 0.05 88 1009.5
20260509030036 12 0 0.0 0.0 0.00 0.05 0.05 88 1009.6
20260509025524 13 0 0.0 0.0 0.00 0.05 0.05 88 1009.6
20260509025024 13 0 0.0 0.0 0.00 0.05 0.05 88 1009.5
20260509024536 13 0 0.0 0.0 0.00 0.05 0.05 88 1009.4
20260509024028 13 0 0.0 0.0 0.00 0.05 0.05 88 1009.3
20260509023526 13 0 0.0 0.0 0.00 0.05 0.05 88 1009.2
20260509023040 13 0 0.0 0.0 0.00 0.05 0.05 87 1009.2
20260509022525 13 0 0.0 0.0 0.00 0.05 0.05 87 1009.2
20260509022024 13 0 0.0 0.0 0.00 0.05 0.05 87 1009.0
20260509021538 13 0 0.0 0.0 0.00 0.05 0.05 87 1008.9
20260509021025 14 0 0.0 0.0 0.00 0.05 0.05 87 1009.0
20260509020523 14 0 0.0 0.0 0.00 0.05 0.05 86 1009.0
20260509020047 14 0 0.0 0.0 0.00 0.05 0.05 86 1009.0
20260509015526 15 0 0.0 0.0 0.00 0.05 0.05 86 1008.8
20260509015025 15 0 0.0 0.0 0.00 0.05 0.05 85 1008.8
20260509014535 15 0 0.0 0.0 0.00 0.05 0.05 84 1008.8
20260509014027 15 0 0.0 0.0 0.00 0.05 0.05 83 1009.0
20260509013524 15 0 0.0 0.0 0.00 0.05 0.05 83 1008.7
20260509013050 16 0 0.0 0.0 0.00 0.05 0.05 82 1008.7
20260509012527 16 0 0.0 0.0 0.00 0.05 0.05 81 1008.6
20260509012023 16 0 0.0 0.0 0.00 0.05 0.05 81 1008.5
20260509011541 16 0 0.0 0.0 0.00 0.05 0.05 80 1008.5
20260509011025 17 0 0.0 0.0 0.00 0.05 0.05 80 1008.4
20260509010524 17 0 0.0 0.0 0.00 0.05 0.05 79 1008.4
20260509010049 17 0 0.0 6.4 0.00 0.05 0.05 78 1008.4
20260509005526 17 0 0.0 6.4 0.00 0.05 0.05 77 1008.4
20260509005028 17 0 0.0 4.8 0.00 0.05 0.05 77 1008.3
20260509004537 18 0 0.0 3.2 0.00 0.05 0.05 76 1008.3
20260509004024 18 0 0.0 3.2 0.00 0.05 0.05 76 1008.1
20260509003526 18 0 0.0 3.2 0.00 0.05 0.05 76 1008.2
20260509003037 18 0 0.0 4.8 0.00 0.05 0.05 76 1008.1
20260509002524 18 320 0.0 4.8 0.00 0.05 0.05 75 1008.0
20260509002024 18 0 0.0 4.8 0.00 0.05 0.05 74 1008.1
20260509001536 18 343 0.0 6.4 0.00 0.05 0.05 74 1008.0
20260509001025 18 0 1.6 6.4 0.00 0.05 0.05 73 1007.9
20260509000524 18 0 0.0 4.8 0.00 0.05 0.05 74 1008.0
20260509000039 18 0 0.0 4.8 0.00 0.05 0.05 73 1007.9
20260508235524 18 0 0.0 4.8 0.00 0.05 0.05 72 1007.9
20260508235025 18 0 0.0 6.4 0.00 0.05 0.05 73 1007.7
20260508234538 18 0 1.6 6.4 0.00 0.05 0.05 73 1007.7
20260508234026 18 11 0.0 4.8 0.00 0.05 0.05 73 1007.8
20260508233528 18 301 0.0 12.9 0.00 0.05 0.05 73 1007.9
20260508233037 18 0 1.6 12.9 0.00 0.05 0.05 74 1008.0
20260508232524 18 0 6.4 12.9 0.00 0.05 0.05 73 1008.1
20260508232024 18 0 0.0 9.7 0.00 0.05 0.05 74 1008.1
20260508231545 18 0 0.0 6.4 0.00 0.05 0.05 75 1008.1
20260508231029 18 297 0.0 6.4 0.00 0.05 0.05 75 1008.1
20260508230524 18 0 0.0 6.4 0.00 0.05 0.05 74 1008.1
20260508230050 17 0 1.6 6.4 0.00 0.05 0.05 75 1008.1
20260508225524 17 300 1.6 6.4 0.00 0.05 0.05 76 1008.0
20260508225025 17 0 1.6 4.8 0.03 0.05 0.05 76 1008.1
20260508224544 17 0 0.0 0.0 0.03 0.05 0.05 80 1007.9
20260508224024 17 0 0.0 0.0 0.03 0.05 0.05 79 1007.9
20260508223524 17 0 0.0 0.0 0.03 0.05 0.05 78 1007.9
20260508223039 17 0 0.0 0.0 0.03 0.05 0.05 80 1007.8
20260508222528 17 0 0.0 1.6 0.03 0.05 0.05 80 1007.7
20260508222026 17 0 0.0 1.6 0.03 0.05 0.05 81 1007.6
20260508221545 17 5 0.0 1.6 0.03 0.05 0.05 83 1007.5
20260508221026 16 0 0.0 3.2 0.03 0.05 0.05 83 1007.6
20260508220525 16 0 0.0 4.8 0.03 0.05 0.05 84 1007.6
20260508220037 16 0 0.0 9.7 0.03 0.05 0.05 85 1007.4
20260508215524 15 0 0.0 9.7 0.03 0.05 0.05 86 1007.3
20260508215023 15 0 0.0 3.2 0.00 0.03 0.03 85 1007.6
20260508214541 15 0 0.0 0.0 0.00 0.03 0.03 85 1007.9
20260508214024 15 0 0.0 6.4 0.00 0.03 0.03 85 1008.2
20260508213526 15 0 0.0 6.4 0.00 0.03 0.03 85 1008.5
20260508213040 15 0 0.0 8.0 0.00 0.03 0.03 84 1008.7
20260508212524 16 0 0.0 8.0 0.00 0.03 0.03 84 1009.0
20260508212025 16 0 0.0 8.0 0.00 0.03 0.03 84 1009.1
20260508211538 16 0 0.0 4.8 0.00 0.03 0.03 84 1009.1
20260508211025 16 0 0.0 4.8 0.00 0.03 0.03 84 1009.2
20260508210526 16 0 0.0 0.0 0.00 0.03 0.03 84 1009.2
20260508210036 16 0 0.0 0.0 0.00 0.03 0.03 84 1009.4
20260508205525 16 0 0.0 3.2 0.00 0.03 0.03 84 1009.4
20260508205030 16 0 0.0 3.2 0.00 0.03 0.03 82 1009.4
20260508204544 16 0 0.0 6.4 0.00 0.03 0.03 83 1009.4
20260508204023 16 0 0.0 6.4 0.00 0.03 0.03 83 1009.5
20260508203523 16 0 0.0 8.0 0.00 0.03 0.03 82 1009.5
20260508203035 16 0 0.0 8.0 0.00 0.03 0.03 82 1009.4
20260508202526 17 0 0.0 6.4 0.03 0.03 0.03 81 1009.5
20260508202023 17 0 0.0 6.4 0.03 0.03 0.03 80 1009.5
20260508201536 17 0 0.0 4.8 0.03 0.03 0.03 80 1009.6
20260508201027 17 0 0.0 4.8 0.03 0.03 0.03 80 1009.5
20260508200523 17 0 0.0 3.2 0.03 0.03 0.03 80 1009.4
20260508200050 17 0 0.0 3.2 0.03 0.03 0.03 80 1009.4
20260508195522 17 0 0.0 3.2 0.03 0.03 0.03 81 1009.5
20260508195022 17 0 0.0 8.0 0.03 0.03 0.03 80 1009.4
20260508194535 17 0 0.0 8.0 0.03 0.03 0.03 80 1009.4
20260508194020 17 0 0.0 9.7 0.03 0.03 0.03 80 1009.4
20260508193526 17 302 0.0 11.3 0.03 0.03 0.03 80 1009.5
20260508193037 17 270 0.0 11.3 0.03 0.03 0.03 80 1009.7
20260508192525 17 286 3.2 11.3 0.00 0.00 0.00 80 1009.5
20260508192024 17 0 0.0 0.0 0.00 0.00 0.00 79 1009.1
20260508191535 17 0 0.0 0.0 0.00 0.00 0.00 77 1009.0
20260508191021 17 0 0.0 0.0 0.00 0.00 0.00 76 1008.9
20260508190521 17 0 0.0 0.0 0.00 0.00 0.00 74 1008.9
20260508190043 17 0 0.0 0.0 0.00 0.00 0.00 74 1009.0
20260508185525 17 0 0.0 1.6 0.00 0.00 0.00 76 1009.1
20260508185021 18 0 0.0 3.2 0.00 0.00 0.00 78 1009.2
20260508184541 17 0 0.0 3.2 0.00 0.00 0.00 79 1009.2
20260508184020 17 0 0.0 0.0 0.00 0.00 0.00 81 1009.2
20260508183520 17 0 0.0 0.0 0.00 0.00 0.00 80 1009.3
20260508183037 17 0 0.0 0.0 0.00 0.00 0.00 80 1009.2
20260508182526 17 0 0.0 0.0 0.00 0.00 0.00 79 1009.1
20260508182023 17 0 0.0 1.6 0.00 0.00 0.00 78 1009.2
20260508181537 17 0 0.0 3.2 0.00 0.00 0.00 77 1009.2
20260508181023 17 0 0.0 3.2 0.00 0.00 0.00 77 1009.6
20260508180525 17 171 0.0 0.0 0.00 0.00 0.00 79 1009.8
20260508180035 17 0 0.0 0.0 0.00 0.00 0.00 81 1009.3
20260508175520 17 0 0.0 0.0 0.00 0.00 0.00 79 1009.4
20260508175024 17 0 0.0 0.0 0.00 0.00 0.00 80 1009.5
20260508174539 17 0 0.0 0.0 0.00 0.00 0.00 78 1009.2
20260508174022 17 0 0.0 0.0 0.00 0.00 0.00 75 1009.3
20260508173521 17 0 0.0 3.2 0.00 0.00 0.00 71 1009.6
20260508173038 17 0 0.0 4.8 0.00 0.00 0.00 70 1009.6
20260508172524 17 149 0.0 9.7 0.00 0.00 0.00 69 1010.0
20260508172023 17 171 0.0 9.7 0.00 0.00 0.00 68 1010.2
20260508171535 18 220 0.0 8.0 0.00 0.00 0.00 68 1009.9
20260508171022 18 0 0.0 3.2 0.00 0.00 0.00 67 1010.0
20260508170523 18 0 0.0 3.2 0.00 0.00 0.00 67 1010.1
20260508170036 18 219 0.0 3.2 0.00 0.00 0.00 67 1010.2
20260508165524 17 0 0.0 3.2 0.00 0.00 0.00 69 1010.2
20260508165023 17 144 0.0 3.2 0.00 0.00 0.00 70 1010.3
20260508164538 17 0 0.0 0.0 0.00 0.00 0.00 70 1010.3
20260508164026 17 0 0.0 8.0 0.00 0.00 0.00 69 1010.6
20260508163523 17 0 0.0 8.0 0.00 0.00 0.00 71 1010.2
20260508163034 16 315 0.0 6.4 0.00 0.00 0.00 71 1009.8
20260508162525 16 0 1.6 8.0 0.00 0.00 0.00 71 1009.6
20260508162024 17 0 0.0 8.0 0.00 0.00 0.00 70 1009.8
20260508161539 17 0 0.0 0.0 0.00 0.00 0.00 69 1009.6
20260508161025 17 0 0.0 0.0 0.00 0.00 0.00 68 1010.2
20260508160524 17 0 0.0 0.0 0.00 0.00 0.00 69 1010.5
20260508160036 17 0 0.0 3.2 0.00 0.00 0.00 69 1010.6
20260508155527 17 0 0.0 3.2 0.00 0.00 0.00 68 1010.6
20260508155025 17 156 0.0 4.8 0.00 0.00 0.00 68 1010.6
20260508154536 17 0 0.0 4.8 0.00 0.00 0.00 68 1010.5
20260508154025 17 0 0.0 4.8 0.00 0.00 0.00 69 1010.6
20260508153526 16 189 0.0 3.2 0.00 0.00 0.00 68 1010.4
20260508153037 16 0 0.0 1.6 0.00 0.00 0.00 69 1010.4
20260508152524 16 0 0.0 4.8 0.00 0.00 0.00 70 1010.4
20260508152024 16 0 0.0 4.8 0.00 0.00 0.00 69 1010.2
20260508151534 16 0 0.0 1.6 0.00 0.00 0.00 70 1010.2
20260508151026 16 0 0.0 1.6 0.00 0.00 0.00 70 1010.3
20260508150527 16 0 0.0 3.2 0.00 0.00 0.00 69 1010.3
20260508150042 16 0 0.0 3.2 0.00 0.00 0.00 69 1010.3
20260508145529 16 0 0.0 3.2 0.00 0.00 0.00 70 1010.3
20260508145024 16 0 0.0 4.8 0.00 0.00 0.00 70 1010.3
20260508144538 16 0 0.0 4.8 0.00 0.00 0.00 70 1010.4
20260508144027 16 0 0.0 1.6 0.00 0.00 0.00 71 1010.4
20260508143526 15 0 0.0 3.2 0.00 0.00 0.00 70 1010.6
20260508143036 15 0 0.0 3.2 0.00 0.00 0.00 70 1010.6
20260508142524 15 329 0.0 9.7 0.00 0.00 0.00 70 1010.6
20260508142026 15 0 0.0 11.3 0.00 0.00 0.00 69 1010.4
20260508141537 15 148 0.0 11.3 0.00 0.00 0.00 69 1010.4
20260508141029 15 295 0.0 12.9 0.00 0.00 0.00 69 1010.2
20260508140525 15 202 1.6 12.9 0.00 0.00 0.00 69 1010.1
20260508140035 15 172 1.6 12.9 0.00 0.00 0.00 69 1010.0
20260508135522 15 173 0.0 11.3 0.00 0.00 0.00 69 1010.2
20260508135028 15 235 1.6 11.3 0.00 0.00 0.00 69 1010.1
20260508134538 15 0 0.0 11.3 0.00 0.00 0.00 69 1010.1
20260508134025 15 240 3.2 12.9 0.00 0.00 0.00 70 1010.1
20260508133528 15 193 1.6 14.5 0.00 0.00 0.00 70 1010.1
20260508133038 15 0 3.2 14.5 0.00 0.00 0.00 70 1010.2
20260508132522 14 0 0.0 8.0 0.00 0.00 0.00 70 1010.3
20260508132024 14 0 3.2 8.0 0.00 0.00 0.00 70 1010.3
20260508131535 14 173 0.0 11.3 0.00 0.00 0.00 71 1010.4
20260508131028 13 194 1.6 11.3 0.00 0.00 0.00 71 1010.3
20260508130522 13 172 1.6 8.0 0.00 0.00 0.00 71 1010.3
20260508130056 13 190 0.0 8.0 0.00 0.00 0.00 71 1010.3
20260508125523 13 0 0.0 14.5 0.00 0.00 0.00 71 1010.3
20260508125023 13 0 1.6 16.1 0.00 0.00 0.00 71 1010.2
20260508124535 13 180 6.4 16.1 0.00 0.00 0.00 71 1010.3
20260508124022 13 0 0.0 4.8 0.00 0.00 0.00 71 1010.2
20260508123524 13 136 0.0 4.8 0.00 0.00 0.00 71 1010.2
20260508123035 13 0 0.0 0.0 0.00 0.00 0.00 71 1010.2
20260508122523 13 0 0.0 0.0 0.00 0.00 0.00 70 1010.2
20260508122022 13 0 0.0 6.4 0.00 0.00 0.00 69 1010.2
20260508121538 13 0 0.0 8.0 0.00 0.00 0.00 69 1010.3
20260508121023 13 0 1.6 9.7 0.00 0.00 0.00 69 1009.9
20260508120523 13 182 1.6 14.5 0.00 0.00 0.00 69 1009.8
20260508120038 13 0 1.6 14.5 0.00 0.00 0.00 70 1009.8
20260508115522 13 0 1.6 12.9 0.00 0.00 0.00 70 1009.7
20260508115023 13 182 1.6 12.9 0.00 0.00 0.00 70 1009.8
20260508114535 13 176 0.0 12.9 0.00 0.00 0.00 70 1009.7
20260508114022 13 176 1.6 12.9 0.00 0.00 0.00 70 1009.5
20260508113523 13 171 3.2 12.9 0.00 0.00 0.00 70 1009.4
20260508113041 13 202 1.6 11.3 0.00 0.00 0.00 70 1009.5
20260508112523 13 206 1.6 12.9 0.00 0.00 0.00 71 1009.5
20260508112023 13 0 1.6 12.9 0.00 0.00 0.00 71 1009.8
20260508111534 13 165 1.6 14.5 0.00 0.00 0.00 70 1009.6
20260508111023 13 0 0.0 14.5 0.00 0.00 0.00 70 1009.5
20260508110522 13 170 3.2 14.5 0.00 0.00 0.00 70 1009.4
20260508110037 13 216 0.0 12.9 0.00 0.00 0.00 70 1009.6
20260508105526 13 190 0.0 8.0 0.00 0.00 0.00 69 1009.7
20260508105025 13 308 0.0 11.3 0.00 0.00 0.00 68 1009.8
20260508104603 13 0 1.6 11.3 0.00 0.00 0.00 68 1009.8
20260508104021 13 0 1.6 11.3 0.00 0.00 0.00 67 1009.6
20260508103521 13 177 0.0 17.7 0.00 0.00 0.00 67 1009.6
20260508103044 13 0 0.0 17.7 0.00 0.00 0.00 67 1009.9
20260508102525 13 191 1.6 14.5 0.00 0.00 0.00 67 1009.8
20260508102024 13 259 1.6 12.9 0.00 0.00 0.00 67 1009.6
20260508101542 13 0 1.6 16.1 0.00 0.00 0.00 67 1009.6
20260508101025 13 167 1.6 16.1 0.00 0.00 0.00 67 1009.4
20260508100524 13 150 1.6 16.1 0.00 0.00 0.00 66 1009.6
20260508100034 14 0 3.2 19.3 0.00 0.00 0.00 66 1009.5
20260508095524 14 153 1.6 19.3 0.00 0.00 0.00 65 1009.3
20260508095023 14 174 4.8 16.1 0.00 0.00 0.00 65 1009.5
20260508094543 14 211 1.6 12.9 0.00 0.00 0.00 65 1009.5
20260508094025 14 146 3.2 12.9 0.00 0.00 0.00 65 1009.4
20260508093525 14 0 3.2 20.9 0.00 0.00 0.00 65 1009.3
20260508093038 14 173 1.6 20.9 0.00 0.00 0.00 64 1009.4
20260508092525 14 177 1.6 12.9 0.00 0.00 0.00 65 1009.3
20260508092024 14 210 1.6 12.9 0.00 0.00 0.00 64 1009.4
20260508091536 14 144 1.6 12.9 0.00 0.00 0.00 64 1009.3
20260508091027 14 172 3.2 12.9 0.00 0.00 0.00 63 1009.3
20260508090525 14 195 3.2 16.1 0.00 0.00 0.00 63 1009.3
20260508090037 15 0 1.6 16.1 0.00 0.00 0.00 63 1009.3
20260508085525 14 186 3.2 14.5 0.00 0.00 0.00 63 1009.4
20260508085025 14 254 3.2 16.1 0.00 0.00 0.00 63 1009.4
20260508084541 15 0 3.2 16.1 0.00 0.00 0.00 63 1009.5
20260508084025 15 190 1.6 12.9 0.00 0.00 0.00 63 1009.4
20260508083528 15 235 3.2 14.5 0.00 0.00 0.00 63 1009.4
20260508083056 15 195 3.2 14.5 0.00 0.00 0.00 63 1009.4
20260508082524 15 0 3.2 12.9 0.00 0.00 0.00 63 1009.5
20260508082024 15 176 1.6 14.5 0.00 0.00 0.00 62 1009.5
20260508081552 15 159 4.8 16.1 0.00 0.00 0.00 62 1009.5
20260508081024 15 207 3.2 16.1 0.00 0.00 0.00 62 1009.6
20260508080526 15 211 1.6 16.1 0.00 0.00 0.00 62 1009.6
20260508080036 15 162 3.2 16.1 0.00 0.00 0.00 62 1009.7
20260508075524 15 208 3.2 12.9 0.00 0.00 0.00 62 1009.8
20260508075028 15 201 1.6 12.9 0.00 0.00 0.00 62 1009.9
20260508074536 15 220 3.2 14.5 0.00 0.00 0.00 61 1010.0
20260508074026 15 0 1.6 14.5 0.00 0.00 0.00 61 1010.1
20260508073525 15 0 3.2 14.5 0.00 0.00 0.00 61 1010.1
20260508073034 15 0 0.0 8.0 0.00 0.00 0.00 62 1010.2
20260508072523 15 182 0.0 9.7 0.00 0.00 0.00 61 1010.4
20260508072124 15 0 1.6 9.7 0.00 0.00 0.00 62 1010.3
20260508071538 15 0 1.6 9.7 0.00 0.00 0.00 62 1010.4
20260508071023 15 156 3.2 16.1 0.00 0.00 0.00 62 1010.4
20260508070527 15 229 0.0 16.1 0.00 0.00 0.00 63 1010.4
20260508070113 15 0 3.2 16.1 0.00 0.00 0.00 63 1010.5
20260508065523 15 153 1.6 12.9 0.00 0.00 0.00 63 1010.4
20260508065022 15 0 1.6 17.7 0.00 0.00 0.00 64 1010.4
20260508064538 15 168 3.2 17.7 0.00 0.00 0.00 64 1010.3
20260508064025 15 0 3.2 16.1 0.00 0.00 0.00 65 1010.4
20260508063528 15 203 3.2 11.3 0.00 0.00 0.00 64 1010.6
20260508063037 15 0 0.0 9.7 0.00 0.00 0.00 64 1010.7
20260508062522 15 0 1.6 11.3 0.00 0.00 0.00 64 1010.9
20260508062023 15 179 3.2 11.3 0.00 0.00 0.00 63 1011.0
20260508061537 14 0 1.6 16.1 0.00 0.00 0.00 63 1011.1
20260508061022 14 181 0.0 16.1 0.00 0.00 0.00 63 1011.2
20260508060524 14 159 3.2 11.3 0.00 0.00 0.00 63 1011.1
20260508060044 14 185 3.2 11.3 0.00 0.00 0.00 63 1011.2
20260508055522 14 167 0.0 9.7 0.00 0.00 0.00 63 1011.2
20260508055024 14 234 0.0 9.7 0.00 0.00 0.00 64 1011.2
20260508054543 14 185 0.0 9.7 0.00 0.00 0.00 63 1011.2
20260508054023 14 167 0.0 11.3 0.00 0.00 0.00 63 1011.1
20260508053521 14 157 0.0 11.3 0.00 0.00 0.00 63 1011.2
20260508053038 15 189 0.0 11.3 0.00 0.00 0.00 63 1011.2
20260508052524 15 157 0.0 9.7 0.00 0.00 0.00 62 1011.1
20260508052023 15 212 1.6 9.7 0.00 0.00 0.00 61 1011.2